www.pogodaiklimat.ru

Погода и климат >> Архив погоды >> Казахстан >> Эмба


ПОГОДА в Эмбе

  • Прогноз погоды в Эмбе
  • Монитор погоды в Эмбе

АРХИВ ПОГОДЫ в Эмбе

Время (UTC), дата Ветер
(напр.,м/с)
 
Видим.   Явления Облачность Т
(С)
Тd
(С)
f
(%)
Тe
(С)
Тes
(С)
Комфортность P
(гПа)
Po
(гПа)
Тmin
(С)
Tmax
(С)
R
(мм)
R24
(мм)
S
(см)
06 15.09 Ю 1 20 км 3/0
[Ac lent Ci ing]
+19.7 +0.5 28 +21 +29 комфорт 1019.2 989.9 +5.6
09 15.09 В 1 20 км 8/8 1000 м
[Cu hum]
+26.1 +0.8 19 +24 +27 комфорт 1017.3 988.7
12 15.09 Ю 4 20 км 8/8 1000 м
[Cu hum]
+26.6 +1.6 20 +25 +25 комфорт 1016.1 987.6
15 15.09 ЮЗ 2 20 км 8/4 1000 м
[Cu hum Ac trans Ci]
+22.4 +3.2 28 +22 +22 комфорт 1016.0 987.1 +27.3
18 15.09 ЮВ 2 н/о 9/9 600 м
[Sc]
+17.5 +0.4 31 +18 +18 1016.3 986.9 +27.3
21 15.09 Ю 2 н/о 9/9 600 м
[Sc]
+15.6 +1.3 38 +16 +16 1015.9 986.3
00 16.09 ЮВ 3 н/о 9/4 1000 м
[Sc Ac trans Ci]
+13.0 +1.7 46 +12 +12 1015.3 985.4
03 16.09 Ю 4 20 км 4/0
[Ac trans Ci ing]
+11.4 +2.1 53 +9 +10 1015.8 985.8
06 16.09 ЮЗ 1 20 км 10/10 600 м
[Sc]
+16.2 +4.4 45 +17 +17 1015.3 985.8 +10.2
09 16.09 ЮЗ 5 20 км 9/6 600 м
[Cu hum Ac und Ci ing]
+19.5 +6.7 43 +20 +21 1014.8 985.6
12 16.09 З 6 20 км 9/0
[Ac und Ci ing]
+20.7 +5.8 38 +21 +22 комфорт 1014.0 985.0
15 16.09 З 2 20 км 6/0
[Ac lent Ci]
+16.8 +2.9 39 +17 +17 1014.1 984.7 +21.6
18 16.09 ЮВ 3 н/о 4/0
[Ac lent Ci]
+13.0 +1.7 46 +12 +12 1014.8 985.0 +21.6
21 16.09 ЮВ 2 н/о 3/0
[Ci ing]
+9.0 +1.3 58 +8 +8 1015.3 985.0
00 17.09 ЮВ 4 н/о 3/0
[Ci ing]
+8.1 +1.3 62 +5 +5 1015.0 984.7
03 17.09 ЮВ 2 20 км 9/0
[Ac lent Ci]
+9.7 +0.1 51 +9 +9 1014.6 984.4
06 17.09 Ю 7 20 км 8/0
[Ac lent Ci]
+17.6 +3.3 38 +17 +18 1013.4 984.1 +7.3
09 17.09 ЮЗ 8 20 км 4/0
[Ci fib]
+23.0 +5.2 31 +23 +25 комфорт 1011.7 983.0
12 17.09 ЮЗ 9 20 км 4/0
[Ci fib]
+25.0 +4.4 26 +24 +25 комфорт 1010.4 981.9
15 17.09 ЮЗ 1 20 км 6/0
[Ci fib]
+21.4 +1.7 27 +21 +21 комфорт 1010.3 981.4 +25.9
18 17.09 ЮВ 3 н/о 6/0
[Ac trans Ci]
+17.1 -0.2 31 +17 +17 1010.9 981.6 +25.9
21 17.09 ЮВ 3 н/о 9/0
[Ac und Ci]
+16.4 +5.8 49 +16 +16 1009.9 980.6
00 18.09 В 3 н/о слаб. ливневой дождь 10/10 600 м
[Cb cap]
+16.0 +14.5 91 +16 +16 1009.1 979.8
03 18.09 В 5 20 км {ливн. осадки} 10/10 600 м
[Cb cap]
+17.5 +11.7 69 +17 +17 1008.2 979.1
06 18.09 В 12 20 км {ливн. осадки} 10/10 600 м
[Cb cap]
+20.5 +11.4 56 +22 +22 комфорт 1006.9 978.1 +14.9 0.4
09 18.09 С 2 20 км 10/10 600 м
[Cb cap]
+21.7 +9.4 45 +23 +23 комфорт 1006.1 977.4
12 18.09 ЮЗ 2 20 км 9/5 1000 м
[Sc Ac trans Ci ing]
+24.1 +5.6 30 +24 +25 комфорт 1006.1 977.6
15 18.09 ЮЗ 2 20 км 6/0
[Ac trans Ci ing]
+20.6 +5.1 36 +22 +22 комфорт 1007.6 978.8 +24.2
18 18.09 З 3 н/о 4/0
[Ci fib]
+16.5 +7.4 55 +16 +16 1009.6 980.3 +24.2
21 18.09 ЮВ 4 н/о 4/0
[Ci fib]
+11.6 +8.2 80 +9 +9 1010.9 981.1
00 19.09 Ю 3 н/о 4/0
[Ci fib]
+10.6 +7.7 82 +9 +9 1011.3 981.4
03 19.09 ЮВ 3 20 км 4/0
[Ci fib]
+11.3 +8.1 81 +9 +10 1010.9 981.1
06 19.09 Ю 11 20 км 8/3 1000 м
[Sc Ac lent Ci ing]
+21.5 +12.0 55 +24 +24 комфорт 1009.4 980.7 +9.0
09 19.09 ЮЗ 13 20 км пыльный позёмок 8/3 1000 м
[Sc Ac lent Ci ing]
+23.0 +12.6 52 +26 +26 жарко 1009.1 980.5
12 19.09 З 5 20 км {метель} 9/9 1000 м
[Sc]
+18.5 +7.8 50 +18 +19 1012.0 982.8 +23.4
15 19.09 ЮЗ 5 20 км 9/4 1000 м
[Sc Ac trans Ci]
+16.7 +1.2 35 +16 +16 1013.7 984.3 +23.4
18 19.09 ЮЗ 4 н/о 4/0
[Ac trans Ci]
+12.1 +1.0 47 +10 +10 1016.2 986.2 +23.4
21 19.09 З 2 н/о 4/0
[Ac trans Ci]
+8.0 +0.8 60 +6 +6 1017.8 987.4
00 20.09 Ю 2 н/о 4/0
[Ac trans Ci]
+4.8 -0.5 69 +2 +2 1019.3 988.5
03 20.09 ЮВ 1 20 км 3/0
[Ci fib]
+2.0 -1.7 76 +1 +1 1020.5 989.3
06 20.09 ЮЗ 3 20 км 9/0
[Ac trans Ci ing]
+11.1 +2.6 56 +10 +13 1020.8 990.6 +1.1
09 20.09 ЮЗ 4 20 км 6/0
[Ac trans Ci ing]
+17.1 +3.0 39 +17 +21 1018.9 989.4
12 20.09 З 3 20 км 9/4 1000 м
[Sc Ac und Ci ing]
+17.9 +2.8 36 +18 +19 1018.1 988.7
15 20.09 СЗ 1 20 км 9/4 1000 м
[Sc Ac lent Ci ing]
+14.7 +2.1 43 +15 +15 1018.5 988.7 +18.8
18 20.09 СВ 4 н/о 6/0
[Ac lent Ci]
+9.7 -0.3 50 +7 +7 1018.8 988.5 +18.8
21 20.09 СВ 3 н/о 6/0
[Ac lent Ci]
+8.4 +0.2 56 +6 +6 1017.6 987.2
00 21.09 В 8 н/о 6/0
[Ac lent Ci]
+12.1 +1.3 48 +9 +9 1014.9 985.0
03 21.09 В 9 20 км 9/8 1000 м
[Sc Ac lent Ci]
+13.0 +1.1 44 +10 +10 1013.2 983.4
06 21.09 В 15-15
{20}
20 км в посл. час ливневой дождь {гроза} 9/9 600 м
[Cb cap]
+15.2 +3.8 46 +12 +12 1007.8 978.4 +8.3
09 21.09 ЮВ 13
{19}
20 км пыльный позёмок 9/0
[Ac und Cc]
+26.8 +7.9 30 +27 +27 жарко 1002.9 974.8
12 21.09 Ю 12
{19}
20 км пыльный позёмок 9/0
[Ac cast Ci ing]
+28.4 +9.7 31 +28 +28 жарко 1000.0 972.2
15 21.09 ЮЗ 6 н/о {метель} 9/9 600 м
[Sc]
+24.0 +10.5 43 +25 +25 комфорт 998.7 970.5 +29.7
18 21.09 З 4 н/о в посл. час ливневой дождь {метель} 10/10 600 м
[Cb cap]
+12.8 +9.5 80 +11 +11 1003.1 973.7 +29.7 0.8
21 21.09 З 2 н/о {ливн. осадки} 10/10 600 м
[Cb cap]
+10.3 +8.5 89 +9 +9 1003.1 973.4
00 22.09 З 3 н/о {ливн. осадки} 9/9 600 м
[Sc]
+6.0 +5.1 94
03 22.09 З 4 20 км 10/10 600 м
[Cb cap]
+8.3 +6.2 87 +5 +5 1005.7 975.7

 

Местоположение метеостанции Эмба (Актюбинская область, Казахстан): широта 48.82 долгота 58.15 высота над уровнем моря 230 м.

В архиве по умолчанию представлена погода в Эмбе за последнюю неделю. Архивные данные за месяц целиком и за предыдущие месяцы, начиная с января 2011 года, Вы можете получить, выбрав интересующий диапазон дат из раскрывающегося списка и нажав кнопку "Ввод!".


*Определитесь, кто Вы:
робот инопланетянин человек

Внимание! Время в таблицах - всемирное. Для получения местного времени необходимо прибавить поправку, которая равна 4 ч.

Смотрите также архив погоды в соседних городах и на ближайших метеорологических станциях:

Погода в Мугалжаре (Актюбинская область, Казахстан) (33 км)
Погода в Жагабулаке (Актюбинская область, Казахстан) (53 км)
Погода в Темире (Актюбинская область, Казахстан) (84 км)
Погода в Токмансае (Актюбинская область, Казахстан) (110 км)
Погода в Шалкаре (Актюбинская область, Казахстан) (153 км)
Погода в Карауылкелды (Актюбинская область, Казахстан) (156 км)
Погода в Акжаре (Актюбинская область, Казахстан) (157 км)
Погода в Актобе (Актюбинская область, Казахстан) (178 км)
Погода в Каралаатсае (Актюбинская область, Казахстан) (184 км)
Погода в Карабутаке (Актюбинская область, Казахстан) (191 км)

Пояснения к столбцам:

Ветер - указаны скорость ветра в м/с - средняя за 10 мин, порывы в срок и между сроками (в фигурных скобках) и направление, откуда дует ветер: С - северный, СВ - северо-восточный, В - восточный, ЮВ - юго-восточный, Ю - южный, ЮЗ - юго-западный, З - западный, СЗ - северо-западный.
Видимость - горизонтальная дальность видимости в метрах или километрах. При видимости от 1 до 10 км при отсутствии осадков обычно наблюдается дымка, при ухудшении видимости до 1 км и менее - туман. В сухую погоду видимость может ухудшаться дымом, пылью или мглою.
Явления - указаны атмосферные явления, наблюдавшиеся в срок или в последний час перед сроком; фигурными скобками обозначены явления, наблюдавшиеся между сроками (за 1-3 часа до срока); квадратными скобками обозначены град или гололедные отложения с указанием их диаметра в мм.
Облачность - указаны через наклонную черту общая и нижняя облачность в баллах и высота нижней границы облаков в метрах; квадратными скобками обозначены формы облаков: Ci - перистые, Cs - перисто-слоистые, Cc - перисто-кучевые, Ac - высококучевые, As - высокослоистые, Sc - слоисто-кучевые, Ns - слоисто-дождевые, Cu - кучевые, Cb - кучево-дождевые. Подробнее классификацию облаков см. в Атласе облаков (PDF).
T - Температура воздуха - температура, измеренная на высоте 2 м над землей.
Td - Температура точки росы - температура, при понижении до которой содержащийся в воздухе водяной пар достигнет насыщения.
f - Относительная влажность воздуха - влажноcть воздуха, измеренная на высоте 2 м над землей.
Te - Эффективная температура - температура, которую ощущает одетый по сезону человек в тени. Характеристика душности погоды. При расчете учитывается влияние влажности воздуха и скорости ветра на теплоощущения человека.
Tes - Эффективная температура на солнце - температура, которую ощущает человек, с поправкой на солнечный нагрев. Характеристика знойности погоды. Зависит от высоты солнца над горизонтом, облачности и скорости ветра. Ночью, в пасмурную погоду, а также при ветре 12 м/с и более поправка равна нулю.
P - Атмосферное давление - приведенное к уровню моря атмосферное давление.
Po - Атмосферное давление - измеренное на уровне метеостанции атмосферное давление.
Tmin - Минимальная температура - минимум температуры воздуха на высоте 2 м над землей.
Tmax - Максимальная температура - максимум температуры воздуха на высоте 2 м над землей.
R - Количество осадков - Количество выпавших осадков за период времени, мм. При наведении курсора мыши на число - период времени, за который выпало указанное количество осадков.
R24 - Количество осадков - Количество выпавших осадков за 24 часа, мм.
S - Снежный покров - Высота снежного покрова, см. При наведении курсора мыши на число - состояние снежного покрова и степень покрытия местности в баллах.